Commit Graph
100 Commits
Author SHA1 Message Date
jbranchaud 77f6ffd056 Add Question Mark Operator as a ruby til. 2015-07-03 15:52:37 -05:00
jbranchaud 287316b506 Add Intervals Of Time By Week as a postgres til. 2015-07-02 08:45:41 -05:00
jbranchaud b54a6bd807 Add Use Argument Indexes as a postgres til. 2015-07-01 20:06:55 -05:00
jbranchaud df4be8207c Fix a code block in latest til. 2015-06-30 21:24:44 -05:00
jbranchaud 887942259d Add Percent Notation as a ruby til. 2015-06-30 21:23:10 -05:00
jbranchaud 3dab4abe95 Add Temporary Tables as a postgres til. 2015-06-28 21:28:34 -05:00
jbranchaud 0859f2addd Add a link to more info in the latest til. 2015-06-27 18:29:34 -05:00
jbranchaud eb48b35597 Add Fizzbuzz With Common Table Expressions as a postgres til. 2015-06-27 11:00:38 -05:00
jbranchaud a974325ec2 Add Default Schema as a postgres til. 2015-06-26 07:50:49 -05:00
jbranchaud 242d233c15 Update the wording a bit. 2015-06-25 08:29:25 -05:00
jbranchaud b57d59f35a Add Repeat Yourself as a zsh til. 2015-06-25 08:25:44 -05:00
jbranchaud 8f6458823e Add List All Columns Of A Specific Type as a postgres til. 2015-06-24 06:46:57 -05:00
jbranchaud 864def4475 Add an h/t note to the latest til. 2015-06-23 08:49:39 -05:00
jbranchaud 85d9cb22f4 Add Temporarily Disable Triggers as a postgres til. 2015-06-23 08:43:40 -05:00
jbranchaud 03d6555531 Add Watch The Difference as a zsh til. 2015-06-22 08:22:11 -05:00
jbranchaud e913bef0ab Add Limit Execution Time Of Statements as a postgres til. 2015-06-21 10:03:59 -05:00
jbranchaud c0a79616e7 Add Auto Expanded Display as a postgres til. 2015-06-20 17:49:46 -05:00
jbranchaud 340f6bbdb6 Add Generate Series Of Numbers as a postgres til. 2015-06-19 08:26:41 -05:00
jbranchaud 2e3474eef0 Add Last Commit A File Appeared In as a git til. 2015-06-18 08:23:32 -05:00
jbranchaud 4897617949 Add String Contains Another String as a postgres til. 2015-06-17 08:27:10 -05:00
jbranchaud 3cf71e45db Add Configure The Timezone as a postgres til. 2015-06-16 08:43:21 -05:00
jbranchaud 1216ba28af Make a clarification in the latest til. 2015-06-15 08:40:05 -05:00
jbranchaud 1a6b2e5867 Add Reload The nginx Configuration as a devops til. 2015-06-15 08:33:06 -05:00
jbranchaud 438605737b Add Verbose Commits With Fugitive as a vim til. 2015-06-14 22:49:56 -05:00
jbranchaud fe7e5f816a Add Using Intervals To Offset Time as a postgres til. 2015-06-13 11:47:11 -05:00
jbranchaud 8b919ba20e Remove a line that I shouldn't have committed. 2015-06-12 16:08:38 -05:00
jbranchaud 059209861a Add Swap Occurrences Of Two Words as a vim til. 2015-06-12 16:05:05 -05:00
jbranchaud 8393c5c0c2 Add a heard through note. 2015-06-11 19:59:05 -05:00
jbranchaud fdd02b2253 Add Check If A Port Is In Use as a zsh til. 2015-06-11 19:55:35 -05:00
jbranchaud f55552bda2 Use the correct level of nesting for javascript. 2015-06-10 08:29:53 -05:00
jbranchaud 74a275079e Add Count Records By Type as a postgres til. 2015-06-10 08:28:17 -05:00
jbranchaud 104d5ef082 Add End Of The Word as a vim til. 2015-06-09 08:30:29 -05:00
jbranchaud a2f47c339d Add Retrieve An Object If It Exists as a rails til. 2015-06-08 08:27:06 -05:00
jbranchaud ae2ec1f054 Link to Hashrocket's TIL collection. 2015-06-07 21:05:38 -05:00
jbranchaud bbe2f897eb Add Who Is The Current User as a postgres til. 2015-06-07 21:03:02 -05:00
jbranchaud 8404cdead8 Add Coerce The Current Filetype as a vim til. 2015-06-06 11:17:02 -05:00
jbranchaud 2159b74b03 Add Override The Initial Sequence Value as a ruby til. 2015-06-05 10:33:34 -05:00
jbranchaud 07ed19021b Add some minor fixes to the latest til. 2015-06-05 00:38:43 -05:00
jbranchaud eea2dd8c1f Add List All Key Bindings as a tmux til. 2015-06-04 20:20:09 -05:00
jbranchaud 5483aa8dd7 Add some minor tweaks to the code blocks. 2015-06-03 08:40:26 -05:00
jbranchaud 89d1274f81 Add Extracting Nested JSON Data as a postgres til. 2015-06-03 08:37:46 -05:00
jbranchaud 0ddcca3927 Add Set Your Color Scheme as a vim til. 2015-06-02 08:19:01 -05:00
jbranchaud 7afd3debe4 Add FactoryGirl Sequences as a ruby til. 2015-06-01 08:02:03 -05:00
jbranchaud 236887ec96 Add Comparing Class Hierarchy Relationships as a Ruby til. 2015-05-31 10:12:14 -05:00
jbranchaud f5621a795a Add Toggling The Pager In PSQL as a postgres til. 2015-05-30 16:13:27 -05:00
jbranchaud 92a55071db Add Check Your Current Color Scheme as a vim til. 2015-05-30 14:31:03 -05:00
jbranchaud 3de74640b3 Add some small fixes to the latest til. 2015-05-29 21:37:06 -05:00
jbranchaud 00c018be30 Add Incremental Searching as a vim til. 2015-05-29 21:34:33 -05:00
jbranchaud 360f8049ed Add Check The Status Of All Services as a devops til. 2015-05-28 17:55:18 -05:00
jbranchaud 24445ccd3b Add Wipe A Heroku Postgres Database as a devops til. 2015-05-27 20:40:37 -05:00
jbranchaud fec8728b27 Fix a typo in the latest post. 2015-05-26 22:59:22 -05:00
jbranchaud 9ec4dbc4e8 Add some clarifications. 2015-05-26 22:57:09 -05:00
jbranchaud 8c9d8fd71a Add Throttling A Function Call as a javascript til. 2015-05-26 22:49:32 -05:00
jbranchaud 5cdc497974 Add a heard through not at the bottom of the latest til. 2015-05-25 21:34:39 -05:00
jbranchaud c517d5c6c8 Add Saying Yes as a zsh til. 2015-05-25 21:31:38 -05:00
jbranchaud 7c9a1ed839 Add Switch Versions of a Brew Formula as a zsh til. 2015-05-25 20:30:17 -05:00
jbranchaud ffe3bf421a Move tmux in your tmux til from the zsh section to the tmux section 2015-05-25 20:26:55 -05:00
jbranchaud 25fd6dc554 Fix a couple small typos in the latest post. 2015-05-24 11:03:51 -05:00
jbranchaud e27299fcc0 Add Reclaiming The Entire Window as a tmux til. 2015-05-24 11:01:33 -05:00
jbranchaud f419bef093 Add Disassemble Some Codes as a ruby til. 2015-05-23 16:47:23 -05:00
jbranchaud b3d4535e83 Add Stashing Only Unstaged Changes as a git til. 2015-05-22 09:04:52 -05:00
jbranchaud 4c5a0274d8 Add Organizing Windows as a tmux til. 2015-05-21 22:09:29 -05:00
jbranchaud 7beead4202 Add List Filenames Without The Diffs as a git til. 2015-05-20 17:00:22 -05:00
jbranchaud 06a7d5c8ca Add Re-indenting Your Code as a vim til. 2015-05-19 08:20:00 -05:00
jbranchaud ffce153a3d Change Source: to h/t (heard through). 2015-05-18 08:45:21 -05:00
jbranchaud 6a01c95ef3 Add Vim Without The Extras as a vim til. 2015-05-18 08:43:26 -05:00
jbranchaud 8b4c47ae69 Add All The Environment Variables as a zsh til. 2015-05-17 17:42:54 -05:00
jbranchaud bf72e6cca8 Fix the link to the other til. 2015-05-17 08:12:53 -05:00
jbranchaud b1244c46b0 Add extra note at the bottom about details of plugin. 2015-05-17 08:11:26 -05:00
jbranchaud f58b5b250a Add Viewing Man Pages with man.vim as a vim til. 2015-05-17 08:04:09 -05:00
jbranchaud 517024a223 Add Push Non-master Branch to Heroku as a devops til. 2015-05-16 17:15:56 -05:00
jbranchaud 27213f40c2 Add a section with some other TIL collections. 2015-05-16 13:08:19 -05:00
jbranchaud 66db39d679 Fix a typo in the latest til. 2015-05-15 08:25:07 -05:00
jbranchaud e0d3f9f225 Add Cat A File With Line Numbers as a zsh til. 2015-05-15 08:20:30 -05:00
jbranchaud 89815d9c2a Add tmux in your tmux as a zsh til. 2015-05-14 09:03:10 -05:00
jbranchaud a3f0b16d7c Link to the source for the latest til. 2015-05-13 08:32:35 -05:00
jbranchaud 6f9e3ad894 Add Pretend Generations as a rails til. 2015-05-13 08:31:45 -05:00
jbranchaud eb6f7cafa2 Update the wording in the latest post. 2015-05-12 08:52:23 -05:00
jbranchaud 34f39e2217 Add Evaluating One-Off Commands as a ruby til. 2015-05-12 08:49:11 -05:00
jbranchaud eed68fdbaf Add Conditional Class Selectors in Haml as a rails til. 2015-05-11 19:39:26 -05:00
jbranchaud 22b2e83544 Add Staging Stashes Interactively as a git til. 2015-05-10 22:40:28 -05:00
jbranchaud 24fb4030b0 Add sql tags to the code blocks. 2015-05-09 11:45:47 -05:00
jbranchaud 6695f37cbb Add Word Count for a Column as a postgres til. 2015-05-09 11:43:18 -05:00
jbranchaud 1bf6290c2a Add Truthiness of Integer Arrays as a javascript til. 2015-05-08 08:20:05 -05:00
jbranchaud a528d891f7 Add a bit more clarification to the latest til. 2015-05-07 08:30:38 -05:00
jbranchaud 1812c42fbd Fix a typo in the latest til post. 2015-05-07 08:28:18 -05:00
jbranchaud f3ac561154 Add The Black Hole Register as a vim til. 2015-05-07 08:22:55 -05:00
jbranchaud 97dd385bf3 Add Create A File Descriptor with Process Substitution as a zsh til. 2015-05-06 08:30:23 -05:00
jbranchaud c052466c58 Add Create A New File In A New Directory as a vim til. 2015-05-05 08:34:54 -05:00
jbranchaud e65382b222 Add Buffer Time Travel as a vim til. 2015-05-04 08:38:41 -05:00
jbranchaud a833a257e9 Add Accessing a Lost Commit as a git til. 2015-05-03 10:04:38 -05:00
jbranchaud 5c6a8358fd Add Character Codes from Keyboard Listeners as a javascript til. 2015-05-02 09:42:45 -05:00
jbranchaud 6b0a5fa1f9 Add Count the Number of Matches as a vim til. 2015-05-01 08:24:13 -05:00
jbranchaud 651cfbb161 Add All or Nothing Database Transactions as a rails til. 2015-04-30 08:42:57 -05:00
jbranchaud 5e92101c6f Add Squeeze Out The Extra Space as a ruby til. 2015-04-29 20:28:18 -05:00
jbranchaud e1a2bd6663 Add Single Key Presses in Interactive Mode as a git til. 2015-04-28 18:30:38 -05:00
jbranchaud 04693e3ced Add Turning Timing On as a postgres til. 2015-04-27 08:22:53 -05:00
jbranchaud 4b79b6e345 Add Finding The Source of Ruby Methods as a ruby til. 2015-04-26 08:36:44 -05:00
jbranchaud ac041cd8a2 Add Joining Lines Together as a vim til. 2015-04-25 13:26:19 -05:00
jbranchaud 73071f6059 Add Destructuring Arrays In Blocks as a ruby til. 2015-04-24 08:41:04 -05:00